Hovedside
METAR-TAF:

METAR-TAF

Lufthavner :

Seinäjoki lufthavn

Seinäjoki-Ilmajoki, Finland

breddegrad: 62-41-37N, lengdegrad: 022-49-55E, høyde over havet: 91 m

Gjeldene værobservasjon

Denne rapporten ble laget for 26 minutter siden, klokken 03:50 UTC
Vind 2 kt fra Vest-nordvest
Temperatur -3°C
Luftfuktighet 100%
Trykk 994 hPa
Sikt 10 km eller mer
Få skyer i en høyde av 100 ft
Spredte skyer i en høyde av 15000 ft

METAR: EFSI 240350Z AUTO 30002KT 9999 FEW001 SCT150 M03/M03 Q0994

Tid: 07:16 (04:16 UTC)


TAF: fraværende

Værobservasjoner og værvarsel for over 4000 flyplasser (METAR- og TAF-rapporter).

Tilgjengelige stasjoner er representert av de røde og gule prikkene på kartet.

Hold musepekeren over prikken for å se navnet på stasjonen.

Klikk så for å se værobservasjoner og -varsler.

For å forandre kartet kan du klikke på den grønne knappen med svart kryss for å zoome inn, på den grønne knappen med strek for å zoome ut, eller på de grønne pilene for å se tilstøtende kart.


METAR-TAF: